TimeCST,TemperatureF,Dew PointF,Humidity,Sea Level PressureIn,VisibilityMPH,Wind Direction,Wind SpeedMPH,Gust SpeedMPH,PrecipitationIn,Events,Conditions,WindDirDegrees,DateUTC
12:15 AM,42.3,37.8,84,30.33,10.0,Calm,Calm,-,N/A,,Clear,0,2012-11-17 06:15:00
12:35 AM,41.4,37.8,87,30.32,10.0,Calm,Calm,-,N/A,,Clear,0,2012-11-17 06:35:00
12:55 AM,41.7,38.1,87,30.32,10.0,NNE,4.6,-,N/A,,Clear,30,2012-11-17 06:55:00
1:15 AM,41.7,37.9,86,30.32,10.0,NNE,4.6,-,N/A,,Clear,30,2012-11-17 07:15:00
1:35 AM,42.6,38.3,85,30.32,10.0,NE,5.8,-,N/A,,Clear,40,2012-11-17 07:35:00
1:55 AM,44.2,39.0,82,30.32,10.0,NE,5.8,-,N/A,,Clear,50,2012-11-17 07:55:00
2:15 AM,44.2,38.8,81,30.32,10.0,NNE,4.6,-,N/A,,Clear,30,2012-11-17 08:15:00
2:35 AM,42.4,38.5,86,30.32,10.0,NNE,4.6,-,N/A,,Clear,20,2012-11-17 08:35:00
2:55 AM,43.9,39.6,85,30.31,10.0,NNE,4.6,-,N/A,,Clear,20,2012-11-17 08:55:00
3:15 AM,45.0,39.6,81,30.31,10.0,NNE,5.8,-,N/A,,Clear,20,2012-11-17 09:15:00
3:35 AM,45.1,39.9,82,30.30,10.0,NNE,5.8,-,N/A,,Clear,30,2012-11-17 09:35:00
3:55 AM,45.1,39.7,81,30.30,10.0,NE,5.8,-,N/A,,Clear,40,2012-11-17 09:55:00
4:15 AM,44.2,39.4,83,30.30,10.0,NNE,6.9,-,N/A,,Clear,30,2012-11-17 10:15:00
4:35 AM,44.6,40.3,85,30.30,10.0,NNE,4.6,-,N/A,,Clear,30,2012-11-17 10:35:00
4:55 AM,45.7,41.0,84,30.30,10.0,NE,5.8,-,N/A,,Clear,40,2012-11-17 10:55:00
5:15 AM,46.2,41.2,83,30.30,10.0,NE,6.9,-,N/A,,Clear,40,2012-11-17 11:15:00
5:35 AM,46.8,41.5,82,30.31,10.0,NNE,5.8,-,N/A,,Clear,30,2012-11-17 11:35:00
5:55 AM,45.5,40.6,83,30.31,10.0,NNE,4.6,-,N/A,,Clear,20,2012-11-17 11:55:00
6:15 AM,43.3,39.6,87,30.32,10.0,North,3.5,-,N/A,,Clear,10,2012-11-17 12:15:00
6:35 AM,43.3,40.1,88,30.33,10.0,Calm,Calm,-,N/A,,Clear,0,2012-11-17 12:35:00
6:55 AM,43.9,40.1,87,30.33,10.0,Calm,Calm,-,N/A,,Clear,0,2012-11-17 12:55:00
7:15 AM,43.7,40.1,87,30.34,10.0,Calm,Calm,-,N/A,,Clear,0,2012-11-17 13:15:00
7:35 AM,44.8,41.2,87,30.34,10.0,NE,3.5,-,N/A,,Clear,40,2012-11-17 13:35:00
7:55 AM,48.9,43.9,83,30.34,10.0,NE,4.6,-,N/A,,Clear,50,2012-11-17 13:55:00
8:15 AM,51.4,44.8,78,30.35,10.0,NE,6.9,-,N/A,,Clear,50,2012-11-17 14:15:00
8:35 AM,53.8,45.3,73,30.36,10.0,NE,6.9,-,N/A,,Clear,50,2012-11-17 14:35:00
8:55 AM,56.7,47.1,70,30.36,10.0,NE,6.9,-,N/A,,Clear,50,2012-11-17 14:55:00
9:15 AM,59.9,48.4,66,30.36,10.0,ENE,8.1,-,N/A,,Clear,60,2012-11-17 15:15:00
9:35 AM,62.6,48.7,60,30.36,10.0,ENE,6.9,-,N/A,,Clear,60,2012-11-17 15:35:00
9:55 AM,64.8,48.2,55,30.37,10.0,ENE,6.9,-,N/A,,Clear,70,2012-11-17 15:55:00
10:15 AM,66.7,45.5,46,30.37,10.0,NE,4.6,-,N/A,,Clear,40,2012-11-17 16:15:00
10:35 AM,66.9,43.5,43,30.37,10.0,NE,4.6,-,N/A,,Clear,50,2012-11-17 16:35:00
11:55 AM,71.1,40.1,32,30.34,10.0,ENE,3.5,-,N/A,,Clear,60,2012-11-17 17:55:00
12:15 PM,72.0,40.1,32,30.34,10.0,ENE,5.8,-,N/A,,Clear,70,2012-11-17 18:15:00
12:35 PM,72.9,39.2,30,30.33,10.0,North,6.9,-,N/A,,Clear,360,2012-11-17 18:35:00
12:55 PM,73.2,38.8,29,30.32,10.0,NE,5.8,-,N/A,,Clear,40,2012-11-17 18:55:00
1:15 PM,73.4,37.9,28,30.31,10.0,East,6.9,-,N/A,,Clear,80,2012-11-17 19:15:00
1:35 PM,74.1,37.0,26,30.30,10.0,NNE,3.5,-,N/A,,Clear,20,2012-11-17 19:35:00
1:55 PM,74.3,36.7,25,30.29,10.0,Calm,Calm,-,N/A,,Clear,0,2012-11-17 19:55:00
2:15 PM,74.3,36.5,25,30.28,10.0,NE,5.8,-,N/A,,Clear,40,2012-11-17 20:15:00
2:35 PM,74.7,37.0,26,30.28,10.0,East,5.8,-,N/A,,Clear,80,2012-11-17 20:35:00
2:55 PM,74.7,37.4,26,30.27,10.0,East,5.8,-,N/A,,Clear,90,2012-11-17 20:55:00
3:15 PM,74.5,36.3,25,30.27,10.0,ENE,6.9,-,N/A,,Clear,60,2012-11-17 21:15:00
3:35 PM,73.4,35.6,25,30.27,10.0,ENE,8.1,-,N/A,,Clear,70,2012-11-17 21:35:00
3:55 PM,73.9,36.9,26,30.27,10.0,ENE,5.8,-,N/A,,Clear,60,2012-11-17 21:55:00
4:15 PM,73.2,37.0,27,30.27,10.0,East,3.5,-,N/A,,Clear,90,2012-11-17 22:15:00
4:35 PM,71.2,46.0,40,30.27,10.0,SE,6.9,-,N/A,,Clear,140,2012-11-17 22:35:00
4:55 PM,68.9,49.1,49,30.27,10.0,SE,5.8,-,N/A,,Clear,140,2012-11-17 22:55:00
5:15 PM,66.7,46.4,48,30.28,10.0,East,6.9,-,N/A,,Clear,90,2012-11-17 23:15:00
5:35 PM,63.7,42.8,47,30.28,10.0,East,6.9,-,N/A,,Clear,90,2012-11-17 23:35:00
5:55 PM,60.1,41.4,50,30.29,10.0,East,5.8,-,N/A,,Clear,90,2012-11-17 23:55:00
6:15 PM,57.9,40.8,53,30.29,10.0,East,5.8,-,N/A,,Clear,100,2012-11-18 00:15:00
6:35 PM,55.9,40.3,56,30.29,10.0,East,5.8,-,N/A,,Clear,90,2012-11-18 00:35:00
6:55 PM,54.3,40.3,59,30.29,10.0,East,5.8,-,N/A,,Clear,90,2012-11-18 00:55:00
7:15 PM,52.9,40.3,62,30.29,10.0,East,6.9,-,N/A,,Clear,90,2012-11-18 01:15:00
7:35 PM,52.5,40.8,64,30.30,10.0,East,5.8,-,N/A,,Clear,100,2012-11-18 01:35:00
7:55 PM,51.1,40.5,67,30.30,10.0,East,5.8,-,N/A,,Clear,90,2012-11-18 01:55:00
8:15 PM,49.6,40.3,70,30.30,10.0,East,5.8,-,N/A,,Clear,100,2012-11-18 02:15:00
8:35 PM,49.5,40.5,71,30.30,10.0,Calm,Calm,-,N/A,,Clear,0,2012-11-18 02:35:00
8:55 PM,50.2,41.5,72,30.30,10.0,Calm,Calm,-,N/A,,Clear,0,2012-11-18 02:55:00
9:15 PM,51.1,41.7,70,30.31,10.0,Calm,Calm,-,N/A,,Clear,0,2012-11-18 03:15:00
9:35 PM,48.4,40.8,75,30.31,10.0,Calm,Calm,-,N/A,,Clear,0,2012-11-18 03:35:00
9:55 PM,47.1,41.4,80,30.31,10.0,Calm,Calm,-,N/A,,Clear,0,2012-11-18 03:55:00
10:15 PM,46.4,40.5,80,30.30,10.0,Calm,Calm,-,N/A,,Clear,0,2012-11-18 04:15:00
10:35 PM,44.2,39.9,85,30.30,10.0,Calm,Calm,-,N/A,,Clear,0,2012-11-18 04:35:00
10:55 PM,44.4,41.4,89,30.31,10.0,Calm,Calm,-,N/A,,Clear,0,2012-11-18 04:55:00
11:15 PM,44.4,41.2,88,30.30,10.0,Calm,Calm,-,N/A,,Clear,0,2012-11-18 05:15:00
11:35 PM,44.6,43.5,96,30.29,10.0,Calm,Calm,-,N/A,,Clear,0,2012-11-18 05:35:00
11:55 PM,45.1,42.1,89,30.29,10.0,NE,3.5,-,N/A,,Clear,50,2012-11-18 05:55:00